Location: Nitra
(0.0000°N, 18.0833°E)
Time: 14:10:21
(UTC+02:00)

deb Explorer IX - All Passes

Search period start: 30 March 2023 00:00
Search period end: 09 April 2023 00:00
Orbit: 536 x 1029 km, 38.8° (Epoch: 28 March)

Date Brightness Start Highest point End Pass type
(mag) Time Alt. Az. Time Alt. Az. Time Alt. Az.
30 Mar - 00:55:39 10° SSW 01:00:52 25° SE 01:05:37 10° E night (unlit)
30 Mar - 02:41:14 10° WSW 02:47:14 56° NW 02:52:26 10° NE night (unlit)
30 Mar - 13:30:03 10° NNW 13:34:22 44° NE 13:39:21 10° ESE daylight
30 Mar - 15:16:30 10° W 15:20:29 23° SW 15:24:56 10° SSE daylight
31 Mar - 00:20:24 10° SSW 00:25:20 22° SE 00:29:55 10° E night (unlit)
31 Mar - 02:05:31 10° SW 02:11:50 69° NW 02:17:18 10° NE night (unlit)
31 Mar - 12:55:05 10° NNW 12:59:05 34° NE 13:03:36 10° ESE daylight
31 Mar - 14:40:59 10° W 14:45:03 27° SW 14:49:38 10° SSE daylight
31 Mar - 23:45:11 10° S 23:49:44 19° SE 23:54:03 10° E night (unlit)
01 Apr - 01:29:48 10° SW 01:36:21 83° NW 01:42:04 10° NE night (unlit)
01 Apr - 03:19:52 10° WNW 03:22:21 13° NW 03:24:42 10° NNW night (unlit)
01 Apr - 12:20:08 10° NNW 12:23:46 26° NE 12:27:45 10° E daylight
01 Apr - 14:05:30 10° WNW 14:09:36 32° SW 14:14:16 10° SSE daylight
01 Apr - 23:10:02 10° S 23:14:05 16° SE 23:17:58 10° ESE night (unlit)
02 Apr - 00:54:06 10° SW 01:00:47 82° SE 01:06:43 10° NE night (unlit)
02 Apr - 02:43:08 10° W 02:46:51 17° NW 02:50:19 10° N night (unlit)
02 Apr - 11:45:15 10° N 11:48:24 20° NE 11:51:46 10° E daylight
02 Apr - 13:30:01 10° WNW 13:34:09 38° SW 13:38:50 10° SSE daylight
02 Apr - 22:35:01 10° S 22:38:21 14° SE 22:41:37 10° ESE night (unlit)
03 Apr - 00:18:23 10° SW 00:25:09 69° SE 00:31:14 10° ENE night (unlit)
03 Apr - 02:06:39 10° W 02:11:17 21° NW 02:15:33 10° N night (unlit)
03 Apr - 11:10:29 10° N 11:12:59 16° NE 11:15:36 10° E daylight
03 Apr - 12:54:32 10° WNW 12:58:41 47° SW 13:03:20 10° SE daylight
03 Apr - 22:00:19 10° SSE 22:02:34 12° SE 22:04:47 10° SE night (unlit)
03 Apr - 23:42:42 10° SW 23:49:26 58° SE 23:55:38 10° ENE night (unlit)
04 Apr - 01:30:20 10° W 01:35:39 26° NW 01:40:30 10° NNE night (unlit)
04 Apr - 10:35:59 10° NNE 10:37:31 12° NE 10:39:04 10° ENE daylight
04 Apr - 12:19:05 10° WNW 12:23:11 60° SW 12:27:47 10° SE daylight
04 Apr - 23:07:01 10° SSW 23:13:39 49° SE 23:19:53 10° ENE night (unlit)
05 Apr - 00:54:05 10° WSW 00:59:56 32° NW 01:05:19 10° NNE night (unlit)
05 Apr - 11:43:36 10° NW 11:47:42 79° SW 11:52:10 10° SE daylight
05 Apr - 22:31:21 10° SSW 22:37:49 42° SE 22:44:00 10° ENE night (unlit)
06 Apr - 00:17:54 10° WSW 00:24:10 39° NW 00:29:58 10° NNE night (unlit)
06 Apr - 11:08:07 10° NW 11:12:09 80° NE 11:16:29 10° SE daylight
06 Apr - 12:57:36 10° SW 12:58:13 10° SW 12:58:51 10° SSW daylight
06 Apr - 21:55:43 10° SSW 22:01:55 35° SE 22:08:00 10° ENE visible
06 Apr - 23:41:45 10° WSW 23:48:19 47° NW 23:54:28 10° NNE night (unlit)
07 Apr - 10:32:37 10° NW 10:36:35 59° NE 10:40:44 10° ESE daylight
07 Apr - 12:20:41 10° WSW 12:22:30 12° SW 12:24:23 10° S daylight
07 Apr - 21:20:06 10° SSW 21:25:58 30° SE 21:31:49 10° E visible
07 Apr - 23:05:39 10° WSW 23:12:24 57° NW 23:18:51 10° NE night (unlit)
08 Apr - 09:57:07 10° NNW 10:00:58 44° NE 10:04:54 10° ESE daylight
08 Apr - 11:44:20 10° WSW 11:46:47 15° SW 11:49:19 10° S daylight
08 Apr - 20:44:34 10° SSW 20:49:59 25° SE 20:55:28 10° E visible
08 Apr - 22:29:35 10° WSW 22:36:27 68° NW 22:43:05 10° NE visible
